{"data":{"norad_id":52536,"epoch":"2026-09-20T04:47:23.047584Z","epoch_age_seconds":89257,"freshness":"FRESH","line1":"1 52536U 22051D   26263.19957231  .00000475  00000+0  25192-4 0  9995","line2":"2 52536  53.1600 322.7822 0001116  87.7697 272.3434 15.34391323240989","mean_motion":15.34391323,"eccentricity":0.0001116,"inclination_deg":53.16,"raan_deg":322.7822,"arg_perigee_deg":87.7697,"mean_anomaly_deg":272.3434,"bstar":2.5192e-5,"rev_number":24098,"period_min":93.848288791451,"perigee_km":461.96558955226,"apogee_km":463.49247085021,"semimajor_km":6840.8660302012,"source":"CELESTRAK","updated_at":"2026-09-20T09:00:40.058214Z"}}